Flag for India Weather past 2 weeks in Kolkata, West Bengal, India

Now
84 °F

Haze.


Feels Like: 85 °F
Forecast: 72 / 89 °F
Wind: 5 mph from North

Location: Calcutta / Dum Dum

Current Time: Oct 21, 2014 at 6:28:18 PM

Latest Report: Oct 21, 2014 at 5:20 PM


Visibility: 2 mi

Pressure: 29.86 "Hg

Humidity: 48%

Dew point: 63 °F

Location of KolkataLocation

Historic Weather in Kolkata — Graph

°F

Kolkata temperature yesterday

Maximum temperature yesterday: 90 °F (at 1:50 PM)
Minimum temperature yesterday: 70 °F (at 5:50 AM)
Average temperature yesterday: 79 °F

Past Weeks' High & Low Weather Summary

 TemperatureHumidityPressure
High95 °F (Oct 9, 12:20 PM)94% (Oct 8, 4:50 AM)29.98 "Hg (Oct 8, 4:50 AM)
Low70 °F (Oct 20, 5:50 AM)36% (Oct 21, 1:50 PM)29.65 "Hg (Oct 10, 2:50 PM)
Average83 °F78%29.82 "Hg
* Reported Oct 6 4:50 PM — Oct 21 5:20 PM, Kolkata, Weather by CustomWeather, © 2014

Note: Actual official high and low records may vary slightly from our data, if they occured in-between our weather recording intervals... More about our weather records

Advertising

Kolkata weather history for previous 24 hours

 ConditionsComfort  
Time TempWeatherWind HumidityBarometerVisibility
5:20 PM
Oct 21
84 °FHaze.5 mph48%29.86 "Hg2 mi
4:50 PM86 °FHaze.6 mph46%29.86 "Hg2 mi
4:20 PM88 °FHaze.6 mph43%29.86 "Hg2 mi
3:50 PM88 °FHaze.7 mph43%29.86 "Hg2 mi
3:20 PM88 °FHaze.7 mph40%29.86 "Hg2 mi
2:50 PM88 °FHaze.6 mph40%29.86 "Hg2 mi
2:20 PM90 °FHaze.6 mph36%29.89 "Hg2 mi
1:50 PM90 °FHaze.6 mph36%29.89 "Hg2 mi
1:20 PM90 °FHaze.5 mph38%29.89 "Hg2 mi
12:50 PM90 °FHaze.7 mph38%29.92 "Hg2 mi
12:20 PM88 °FHaze.7 mph43%29.92 "Hg2 mi
11:50 AM88 °FHaze.7 mph43%29.95 "Hg2 mi
11:20 AM88 °FHaze.7 mph43%29.95 "Hg2 mi
10:50 AM86 °FHaze.7 mph46%29.95 "Hg2 mi
10:20 AM86 °FHaze.7 mph46%29.98 "Hg2 mi
9:20 AM82 °FHaze.6 mph51%29.98 "Hg2 mi
8:50 AM81 °FHaze.6 mph58%29.98 "Hg2 mi
8:20 AM79 °FHaze.5 mph65%29.98 "Hg1 mi
7:50 AM77 °FHaze.5 mph69%29.98 "Hg1 mi
7:20 AM75 °FFog.5 mph74%29.98 "Hg1 mi
6:50 AM73 °FFog.No wind78%29.95 "Hg1 mi
6:20 AM70 °FFog.No wind83%29.95 "Hg1 mi
5:50 AM70 °FFog.3 mph83%29.95 "Hg1 mi
5:20 AM70 °FHaze.No wind88%29.92 "Hg1 mi
4:50 AM70 °FHaze.No wind88%29.92 "Hg1 mi
4:20 AM70 °FHaze.No wind88%29.92 "Hg1 mi
3:50 AM70 °FHaze.No wind88%29.89 "Hg1 mi
3:20 AM70 °FHaze.No wind88%29.89 "Hg1 mi
2:50 AM72 °FHaze.No wind83%29.89 "Hg1 mi
2:20 AM72 °FHaze.No wind83%29.89 "Hg1 mi
1:50 AM72 °FHaze.No wind88%29.89 "Hg1 mi
1:20 AM72 °FHaze.No wind88%29.89 "Hg1 mi
12:50 AM72 °FHaze.No wind88%29.89 "Hg1 mi
12:20 AM72 °FHaze.3 mph88%29.89 "Hg1 mi
11:50 PM
Oct 20
73 °FHaze.No wind83%29.92 "Hg1 mi
11:20 PM73 °FHaze.No wind89%29.92 "Hg1 mi
10:50 PM75 °FHaze.No wind78%29.92 "Hg1 mi
10:20 PM75 °FHaze.No wind74%29.92 "Hg1 mi
9:50 PM75 °FHaze.No wind74%29.92 "Hg1 mi
9:20 PM75 °FHaze.No wind74%29.92 "Hg1 mi
8:50 PM75 °FHaze.No wind74%29.92 "Hg1 mi
8:20 PM77 °FHaze.No wind65%29.89 "Hg1 mi
7:50 PM77 °FHaze.No wind65%29.89 "Hg1 mi
7:20 PM77 °FHaze.No wind65%29.89 "Hg1 mi
6:50 PM81 °FHaze.3 mph54%29.86 "Hg1 mi
6:20 PM81 °FHaze.3 mph54%29.86 "Hg1 mi
Weather by CustomWeather, © 2014

See weather overviewHow to use our weather pages